DAL2448 KDCA-KLGA

Flight info

Callsign DAL2448
Flight time 0h 39m
Altitude 21000
Route DOCTR5 AGARD SPEAK PROUD2
Aircraft A319/M-SDE3FGHIRWY/LB1

Departure

Time 2026-04-23 02:03
Airport Ronald Reagan Washington National Airport (KDCA)

Arrival

Time 2026-04-23 02:42
Airport LaGuardia Airport (KLGA)
Time Latitude Longitude Altitude Speed Heading
2026-04-23 01:36 38.85474 -77.04146 30 ft 0 kts 172°
2026-04-23 01:49 38.85486 -77.04148 31 ft 3 kts 172°
2026-04-23 01:49 38.85504 -77.04151 30 ft 3 kts 139°
2026-04-23 01:49 38.85511 -77.04166 26 ft 0 kts 80°
2026-04-23 01:55 38.85511 -77.04165 30 ft 1 kts 80°
2026-04-23 01:55 38.85514 -77.04141 28 ft 5 kts 80°
2026-04-23 01:56 38.85521 -77.04093 26 ft 6 kts 80°
2026-04-23 01:56 38.85539 -77.04044 26 ft 6 kts 56°
2026-04-23 01:56 38.85568 -77.04019 27 ft 4 kts 353°
2026-04-23 01:56 38.85589 -77.04037 24 ft 3 kts 328°
2026-04-23 01:57 38.85604 -77.04040 30 ft 1 kts 355°
2026-04-23 01:57 38.85610 -77.04041 29 ft 0 kts 356°
2026-04-23 01:57 38.85616 -77.04041 28 ft 2 kts 356°
2026-04-23 01:57 38.85642 -77.04043 29 ft 5 kts 356°
2026-04-23 01:58 38.85686 -77.04047 29 ft 7 kts 356°
2026-04-23 01:58 38.85734 -77.04051 29 ft 7 kts 356°
2026-04-23 01:58 38.85789 -77.04055 28 ft 9 kts 356°
2026-04-23 01:58 38.85861 -77.04060 27 ft 7 kts 356°
2026-04-23 01:59 38.85863 -77.04061 27 ft 0 kts 356°
2026-04-23 01:59 38.85892 -77.04063 26 ft 6 kts 356°
2026-04-23 01:59 38.85903 -77.04064 26 ft 0 kts 356°
2026-04-23 02:00 38.85904 -77.04064 26 ft 1 kts 356°
2026-04-23 02:00 38.85913 -77.04065 26 ft 2 kts 356°
2026-04-23 02:00 38.85929 -77.04066 26 ft 3 kts 356°
2026-04-23 02:00 38.85949 -77.04068 26 ft 3 kts 356°
2026-04-23 02:01 38.85975 -77.04065 27 ft 4 kts 18°
2026-04-23 02:01 38.86001 -77.04051 27 ft 4 kts 24°
2026-04-23 02:01 38.86033 -77.04026 28 ft 6 kts 36°
2026-04-23 02:01 38.86072 -77.03977 26 ft 9 kts 55°
2026-04-23 02:02 38.86074 -77.03886 25 ft 10 kts 108°
2026-04-23 02:02 38.86042 -77.03864 24 ft 2 kts 175°
2026-04-23 02:02 38.85998 -77.03862 25 ft 24 kts 178°
2026-04-23 02:02 38.85553 -77.03814 26 ft 101 kts 175°
2026-04-23 02:03 38.84658 -77.03733 142 ft 145 kts 176°
2026-04-23 02:03 38.83671 -77.03638 777 ft 143 kts 174°
2026-04-23 02:03 38.82681 -77.03444 1385 ft 144 kts 175°
2026-04-23 02:03 38.81677 -77.03227 1921 ft 152 kts 176°
2026-04-23 02:04 38.80555 -77.02991 2277 ft 174 kts 175°
2026-04-23 02:04 38.79277 -77.02722 2603 ft 197 kts 174°
2026-04-23 02:04 38.77852 -77.02418 2964 ft 216 kts 174°
2026-04-23 02:04 38.76356 -77.01918 3414 ft 235 kts 154°
2026-04-23 02:05 38.75189 -77.00314 3728 ft 264 kts 113°
2026-04-23 02:05 38.74766 -76.97942 4298 ft 281 kts 92°
2026-04-23 02:05 38.74805 -76.95423 5191 ft 284 kts 75°
2026-04-23 02:05 38.75535 -76.93090 6147 ft 282 kts 55°
2026-04-23 02:06 38.76705 -76.91082 7116 ft 281 kts 43°
2026-04-23 02:06 38.78158 -76.89472 8063 ft 278 kts 29°
2026-04-23 02:06 38.79801 -76.88162 9055 ft 278 kts 27°
2026-04-23 02:06 38.81459 -76.86860 10023 ft 280 kts 26°
2026-04-23 02:07 38.83173 -76.85524 10544 ft 299 kts 27°
2026-04-23 02:07 38.84976 -76.83993 10932 ft 322 kts 34°
2026-04-23 02:07 38.86567 -76.81878 11616 ft 336 kts 49°
2026-04-23 02:07 38.87765 -76.79298 12416 ft 345 kts 60°
2026-04-23 02:08 38.88813 -76.76502 13225 ft 349 kts 60°
2026-04-23 02:08 38.89875 -76.73682 14000 ft 352 kts 60°
2026-04-23 02:08 38.90947 -76.70828 14688 ft 356 kts 60°
2026-04-23 02:08 38.92029 -76.67946 15393 ft 360 kts 60°
2026-04-23 02:09 38.93120 -76.65041 16084 ft 363 kts 60°
2026-04-23 02:09 38.94223 -76.62101 16768 ft 367 kts 60°
2026-04-23 02:09 38.95304 -76.59104 17446 ft 372 kts 62°
2026-04-23 02:09 38.96331 -76.56035 18124 ft 376 kts 63°
2026-04-23 02:10 38.97335 -76.52908 18718 ft 380 kts 63°
2026-04-23 02:10 38.98320 -76.49793 19024 ft 383 kts 63°
2026-04-23 02:10 38.99338 -76.46567 19619 ft 386 kts 63°
2026-04-23 02:10 39.00351 -76.43359 20228 ft 390 kts 64°
2026-04-23 02:11 39.01108 -76.39971 20792 ft 399 kts 75°
2026-04-23 02:11 39.01503 -76.36464 20973 ft 402 kts 78°
2026-04-23 02:11 39.01852 -76.32934 21020 ft 395 kts 78°
2026-04-23 02:11 39.02189 -76.29440 21022 ft 393 kts 78°
2026-04-23 02:12 39.02523 -76.25949 21022 ft 392 kts 78°
2026-04-23 02:12 39.02857 -76.22469 21024 ft 392 kts 78°
2026-04-23 02:12 39.03193 -76.18986 21022 ft 392 kts 78°
2026-04-23 02:12 39.03531 -76.15513 21022 ft 392 kts 78°
2026-04-23 02:13 39.03871 -76.12033 21029 ft 391 kts 78°
2026-04-23 02:13 39.04209 -76.08548 21022 ft 391 kts 78°
2026-04-23 02:13 39.04510 -76.05106 21022 ft 392 kts 80°
2026-04-23 02:13 39.04918 -76.01658 21021 ft 386 kts 69°
2026-04-23 02:14 39.06020 -75.98572 21024 ft 376 kts 51°
2026-04-23 02:14 39.07679 -75.96021 21015 ft 370 kts 42°
2026-04-23 02:14 39.09433 -75.93582 21003 ft 370 kts 42°
2026-04-23 02:14 39.11183 -75.91145 21009 ft 371 kts 42°
2026-04-23 02:15 39.14670 -75.86289 21007 ft 371 kts 42°
2026-04-23 02:15 39.16423 -75.83846 21025 ft 371 kts 42°
2026-04-23 02:15 39.18170 -75.81404 21021 ft 371 kts 42°
2026-04-23 02:16 39.19920 -75.78944 21020 ft 371 kts 43°
2026-04-23 02:16 39.21663 -75.76487 21030 ft 371 kts 42°
2026-04-23 02:16 39.23404 -75.74030 21024 ft 371 kts 42°
2026-04-23 02:16 39.25151 -75.71566 21027 ft 371 kts 42°
2026-04-23 02:17 39.26899 -75.69108 21028 ft 371 kts 42°
2026-04-23 02:17 39.28648 -75.66650 21026 ft 371 kts 42°
2026-04-23 02:17 39.29805 -75.65023 21030 ft 371 kts 42°
2026-04-23 02:17 39.31552 -75.62562 21028 ft 371 kts 42°
2026-04-23 02:18 39.33299 -75.60100 21024 ft 371 kts 42°
2026-04-23 02:18 39.35050 -75.57636 21027 ft 371 kts 42°
2026-04-23 02:18 39.36797 -75.55175 21037 ft 372 kts 42°
2026-04-23 02:18 39.38540 -75.52708 21035 ft 372 kts 42°
2026-04-23 02:19 39.40282 -75.50233 21043 ft 372 kts 42°
2026-04-23 02:19 39.42025 -75.47757 21041 ft 372 kts 42°
2026-04-23 02:19 39.43770 -75.45282 21006 ft 370 kts 42°
2026-04-23 02:19 39.45485 -75.42849 20743 ft 362 kts 42°
2026-04-23 02:20 39.47169 -75.40455 20508 ft 358 kts 42°
2026-04-23 02:20 39.48842 -75.38069 20259 ft 356 kts 42°
2026-04-23 02:20 39.50506 -75.35701 20012 ft 354 kts 42°
2026-04-23 02:20 39.52141 -75.33374 19758 ft 353 kts 42°
2026-04-23 02:21 39.53815 -75.30992 19533 ft 352 kts 42°
2026-04-23 02:21 39.55437 -75.28682 19297 ft 351 kts 41°
2026-04-23 02:21 39.57081 -75.26341 19056 ft 350 kts 41°
2026-04-23 02:21 39.58713 -75.24014 18819 ft 348 kts 41°
2026-04-23 02:22 39.60338 -75.21695 18586 ft 347 kts 41°
2026-04-23 02:22 39.61959 -75.19377 18355 ft 346 kts 41°
2026-04-23 02:22 39.63573 -75.17063 18088 ft 344 kts 41°
2026-04-23 02:22 39.65181 -75.14758 17821 ft 343 kts 41°
2026-04-23 02:23 39.66785 -75.12466 17555 ft 341 kts 40°
2026-04-23 02:23 39.68543 -75.10463 17292 ft 333 kts 29°
2026-04-23 02:23 39.70466 -75.08806 17034 ft 330 kts 27°
2026-04-23 02:23 39.72381 -75.07170 16776 ft 329 kts 27°
2026-04-23 02:24 39.74290 -75.05533 16531 ft 329 kts 27°
2026-04-23 02:24 39.76173 -75.03913 16278 ft 328 kts 27°
2026-04-23 02:24 39.78073 -75.02270 16027 ft 327 kts 28°
2026-04-23 02:24 39.79965 -75.00632 15776 ft 326 kts 28°
2026-04-23 02:25 39.81852 -74.99000 15536 ft 325 kts 28°
2026-04-23 02:25 39.83733 -74.97372 15289 ft 324 kts 28°
2026-04-23 02:25 39.85605 -74.95750 15047 ft 323 kts 28°
2026-04-23 02:25 39.87457 -74.94101 14804 ft 322 kts 29°
2026-04-23 02:26 39.89295 -74.92432 14560 ft 322 kts 29°
2026-04-23 02:26 39.91125 -74.90759 14335 ft 318 kts 29°
2026-04-23 02:26 39.92829 -74.88911 13989 ft 322 kts 40°
2026-04-23 02:26 39.94341 -74.86742 13549 ft 322 kts 41°
2026-04-23 02:27 39.95846 -74.84578 13128 ft 321 kts 41°
2026-04-23 02:27 39.97342 -74.82434 12722 ft 318 kts 41°
2026-04-23 02:27 39.98827 -74.80308 12326 ft 316 kts 41°
2026-04-23 02:27 40.00289 -74.78214 11925 ft 315 kts 42°
2026-04-23 02:28 40.01763 -74.76099 11525 ft 313 kts 42°
2026-04-23 02:28 40.03227 -74.73996 11121 ft 312 kts 42°
2026-04-23 02:28 40.04685 -74.71902 10710 ft 311 kts 42°
2026-04-23 02:28 40.06140 -74.69812 10305 ft 310 kts 42°
2026-04-23 02:29 40.07573 -74.67752 10098 ft 302 kts 42°
2026-04-23 02:29 40.08972 -74.65739 9974 ft 296 kts 42°
2026-04-23 02:29 40.10351 -74.63757 9992 ft 295 kts 42°
2026-04-23 02:29 40.11733 -74.61773 9987 ft 295 kts 42°
2026-04-23 02:30 40.13116 -74.59784 9984 ft 295 kts 42°
2026-04-23 02:30 40.14496 -74.57795 9985 ft 295 kts 42°
2026-04-23 02:30 40.15858 -74.55826 9986 ft 296 kts 42°
2026-04-23 02:30 40.17239 -74.53827 9985 ft 295 kts 42°
2026-04-23 02:31 40.18618 -74.51836 9986 ft 295 kts 42°
2026-04-23 02:31 40.19998 -74.49845 9988 ft 295 kts 42°
2026-04-23 02:31 40.21414 -74.47904 9988 ft 294 kts 39°
2026-04-23 02:31 40.22881 -74.46033 9988 ft 293 kts 38°
2026-04-23 02:32 40.24363 -74.44199 9731 ft 294 kts 37°
2026-04-23 02:32 40.25853 -74.42360 9274 ft 294 kts 38°
2026-04-23 02:32 40.27318 -74.40539 8861 ft 293 kts 38°
2026-04-23 02:32 40.28785 -74.38703 8468 ft 291 kts 38°
2026-04-23 02:33 40.30249 -74.36865 8044 ft 291 kts 38°
2026-04-23 02:33 40.31702 -74.35029 7682 ft 288 kts 38°
2026-04-23 02:33 40.33127 -74.33218 7462 ft 282 kts 38°
2026-04-23 02:33 40.34539 -74.31427 7325 ft 282 kts 38°
2026-04-23 02:34 40.35948 -74.29642 7176 ft 281 kts 38°
2026-04-23 02:34 40.37355 -74.27859 7034 ft 280 kts 38°
2026-04-23 02:34 40.38754 -74.26081 6891 ft 280 kts 38°
2026-04-23 02:34 40.40155 -74.24303 6750 ft 279 kts 38°
2026-04-23 02:35 40.41532 -74.22561 6609 ft 278 kts 38°
2026-04-23 02:35 40.42926 -74.20794 6471 ft 277 kts 39°
2026-04-23 02:35 40.44312 -74.19032 6326 ft 277 kts 39°
2026-04-23 02:35 40.45699 -74.17266 6175 ft 277 kts 39°
2026-04-23 02:36 40.47080 -74.15504 6039 ft 277 kts 39°
2026-04-23 02:36 40.48459 -74.13742 5897 ft 276 kts 39°
2026-04-23 02:36 40.49838 -74.11984 5742 ft 276 kts 39°
2026-04-23 02:36 40.51216 -74.10227 5607 ft 276 kts 39°
2026-04-23 02:37 40.52615 -74.08508 5462 ft 274 kts 34°
2026-04-23 02:37 40.54160 -74.07081 5337 ft 270 kts 27°
2026-04-23 02:37 40.55764 -74.05798 5124 ft 269 kts 26°
2026-04-23 02:37 40.57345 -74.04521 4782 ft 265 kts 27°
2026-04-23 02:38 40.58899 -74.03246 4417 ft 260 kts 27°
2026-04-23 02:38 40.60372 -74.02033 4065 ft 246 kts 27°
2026-04-23 02:38 40.61789 -74.00868 3733 ft 233 kts 27°
2026-04-23 02:38 40.63128 -73.99769 3422 ft 222 kts 28°
2026-04-23 02:39 40.64408 -73.98717 3115 ft 212 kts 28°
2026-04-23 02:39 40.65637 -73.97707 2824 ft 204 kts 28°
2026-04-23 02:39 40.66818 -73.96736 2574 ft 195 kts 28°
2026-04-23 02:39 40.67944 -73.95809 2273 ft 187 kts 29°
2026-04-23 02:40 40.69024 -73.94920 2009 ft 179 kts 29°
2026-04-23 02:40 40.70058 -73.94069 1761 ft 172 kts 30°
2026-04-23 02:40 40.71045 -73.93256 1509 ft 162 kts 30°
2026-04-23 02:40 40.71977 -73.92488 1291 ft 153 kts 31°
2026-04-23 02:41 40.72835 -73.91780 1059 ft 138 kts 31°
2026-04-23 02:41 40.73617 -73.91135 862 ft 131 kts 32°
2026-04-23 02:41 40.74379 -73.90507 682 ft 128 kts 33°
2026-04-23 02:41 40.75132 -73.89887 509 ft 127 kts 33°
2026-04-23 02:42 40.75873 -73.89266 322 ft 126 kts 35°
2026-04-23 02:42 40.76614 -73.88654 144 ft 125 kts 34°
2026-04-23 02:42 40.77345 -73.88062 21 ft 116 kts 33°
2026-04-23 02:42 40.77806 -73.87682 18 ft 35 kts 31°
2026-04-23 02:43 40.77949 -73.87561 16 ft 22 kts 35°
2026-04-23 02:43 40.78072 -73.87447 12 ft 22 kts 27°
2026-04-23 02:43 40.78208 -73.87352 14 ft 21 kts 29°
2026-04-23 02:43 40.78239 -73.87305 16 ft 6 kts 75°
2026-04-23 02:44 40.78226 -73.87248 14 ft 8 kts 114°
2026-04-23 02:44 40.78180 -73.87227 14 ft 7 kts 199°
2026-04-23 02:44 40.78135 -73.87259 15 ft 8 kts 212°
2026-04-23 02:44 40.78103 -73.87286 15 ft 0 kts 212°